IR2UDS Weather Reports


time (UTC)temp
F
wind
direction
speed
knots
gust
knots
rain 1hr
in
rain 24hr
in
rain mn
in
humidity
%
barometer
mb
20260507171318 47 144 2.6 5.2 0.00 0.10 0.05 85 1014.1
20260507165331 48 177 4.3 5.2 0.00 0.11 0.05 83 1014.1
20260507163323 49 179 0.0 3.5 0.00 0.11 0.05 79 1014.0
20260507162316 49 187 2.6 3.5 0.01 0.11 0.05 77 1014.0
20260507161315 49 198 1.7 7.0 0.01 0.11 0.05 80 1014.1
20260507152320 48 252 0.0 0.9 0.01 0.12 0.04 84 1014.1
20260507135333 46 350 0.0 2.6 0.01 0.15 0.03 87 1014.2
20260507134324 45 244 0.0 4.3 0.01 0.15 0.03 87 1014.2
20260507132315 46 11 0.0 3.5 0.00 0.14 0.02 87 1014.3
20260507125323 46 290 1.7 3.5 0.00 0.18 0.02 86 1014.3
20260507120318 46 35 0.9 3.5 0.00 0.21 0.02 84 1014.4
20260507115315 46 291 5.2 7.0 0.00 0.21 0.02 84 1014.3
20260507114328 46 5 0.0 3.5 0.00 0.21 0.02 84 1014.4
20260507113321 46 169 1.7 7.0 0.00 0.21 0.02 81 1014.4
20260507112333 46 188 4.3 8.7 0.00 0.21 0.02 79 1014.5
20260507111326 46 236 2.6 8.7 0.00 0.21 0.02 83 1014.4
20260507105320 46 245 2.6 4.3 0.00 0.24 0.02 83 1014.6
20260507104313 46 38 0.0 3.5 0.00 0.24 0.02 83 1014.5
20260507102322 46 32 0.0 3.5 0.00 0.24 0.02 82 1014.6
20260507100319 47 31 2.6 7.8 0.00 0.26 0.02 81 1014.6
20260507095314 47 217 4.3 6.1 0.00 0.26 0.02 80 1014.6
20260507094326 48 282 0.9 7.8 0.00 0.26 0.02 80 1014.5
20260507090330 47 191 0.9 4.3 0.00 0.29 0.02 82 1014.4
20260507085324 47 15 1.7 4.3 0.00 0.29 0.02 82 1014.2
20260507083316 48 355 0.9 2.6 0.00 0.29 0.02 79 1014.2
20260507082315 47 44 1.7 4.3 0.00 0.29 0.02 81 1014.0
20260507081331 46 228 0.9 10.4 0.00 0.29 0.02 81 1014.1
20260507075317 44 180 5.2 9.6 0.00 0.32 0.02 83 1013.8
20260507074332 43 192 7.0 8.7 0.00 0.32 0.02 84 1013.8
20260507072326 43 201 1.7 8.7 0.00 0.32 0.02 85 1013.6
20260507065328 43 154 5.2 8.7 0.00 0.35 0.02 86 1013.4
20260507063319 42 189 3.5 8.7 0.00 0.35 0.02 85 1013.2
20260507061332 42 177 3.5 7.0 0.00 0.35 0.02 85 1013.0
20260507060327 42 184 3.5 9.6 0.00 0.38 0.02 85 1013.1
20260507055318 41 184 3.5 7.8 0.00 0.38 0.02 86 1012.9
20260507053313 40 200 5.2 7.8 0.00 0.38 0.02 86 1012.8
20260507052326 41 197 6.1 8.7 0.00 0.38 0.02 86 1012.6
20260507051319 41 181 7.8 12.2 0.00 0.38 0.02 84 1012.5
20260507043321 40 198 8.7 12.2 0.00 0.41 0.02 86 1011.9
20260507042316 40 191 9.6 13.0 0.00 0.41 0.02 87 1011.8
20260507041329 40 202 10.4 12.2 0.00 0.41 0.02 87 1011.8
20260507035320 39 205 10.4 13.0 0.00 0.45 0.02 87 1011.7
20260507034318 39 207 9.6 13.0 0.00 0.45 0.02 87 1011.6
20260507033333 39 197 7.8 12.2 0.00 0.45 0.02 87 1011.7
20260507032325 40 217 9.6 14.8 0.00 0.45 0.02 86 1011.6
20260507031319 40 211 10.4 13.9 0.00 0.45 0.02 86 1011.5
20260507030314 40 211 10.4 13.9 0.01 0.48 0.02 85 1011.6
20260507023324 40 197 9.6 18.2 0.01 0.48 0.02 86 1011.4
20260507022316 40 193 12.2 16.5 0.01 0.48 0.02 86 1011.4
20260507015326 40 209 11.3 17.4 0.00 0.49 0.01 87 1011.2
20260507013314 40 190 11.3 16.5 0.00 0.49 0.01 86 1011.3
20260507010317 40 207 10.4 15.6 0.00 0.49 0.01 86 1011.2
20260507005315 40 209 11.3 13.0 0.00 0.49 0.01 86 1011.3
20260507004327 40 238 9.6 12.2 0.00 0.49 0.01 86 1011.5
20260507002318 41 230 8.7 12.2 0.01 0.49 0.01 85 1011.4
20260507001332 41 230 9.6 13.9 0.01 0.49 0.01 85 1011.3
20260506235326 41 217 12.2 17.4 0.01 0.49 0.01 85 1011.0
20260506225319 41 188 13.0 25.2 0.00 0.48 0.00 85 1010.6
20260506224314 41 215 18.2 23.5 0.01 0.48 0.00 84 1010.3
20260506221322 41 201 17.4 26.9 0.01 0.48 0.00 84 1010.3
20260506220319 41 192 19.1 28.7 0.01 0.48 0.00 83 1010.3
20260506215332 41 188 20.0 26.9 0.01 0.48 0.48 82 1010.4
20260506214328 41 185 20.0 30.4 0.00 0.47 0.47 80 1010.4
20260506205323 42 198 21.7 30.4 0.01 0.47 0.47 76 1010.2
20260506202318 42 170 15.6 28.7 0.01 0.47 0.47 79 1010.3
20260506201327 42 173 15.6 21.7 0.01 0.46 0.46 80 1010.4
20260506200328 41 178 6.1 16.5 0.01 0.47 0.46 81 1010.7
20260506195328 41 151 7.0 12.2 0.01 0.47 0.46 81 1010.5
20260506193321 41 93 4.3 8.7 0.01 0.47 0.46 81 1010.4
20260506191314 41 157 9.6 20.9 0.01 0.46 0.45 82 1009.8
20260506190327 41 200 18.2 24.3 0.01 0.46 0.45 82 1009.2
20260506184322 41 205 13.0 20.0 0.01 0.46 0.45 84 1009.3
20260506183315 41 147 12.2 19.1 0.01 0.46 0.45 83 1009.4
20260506181326 42 209 17.4 24.3 0.01 0.45 0.44 81 1008.6
20260506180323 42 196 18.2 30.4 0.01 0.45 0.44 80 1008.3
20260506175318 42 195 25.2 33.0 0.01 0.45 0.44 80 1007.9